Greenville, ME

5:04 PM EDT on April 24, 2017 (GMT -0400)
Greenville

Weather History for KGNR - May, 2012

Change the Weather History Date:

Wednesday, May 2, 2012

  Actual Average (KMLT) Record (KMLT)
Temperature  
Mean Temperature 38 °F -  
Max Temperature 42 °F 60 °F 86 °F (2001)
Min Temperature 35 °F 36 °F 21 °F (1974)
Degree Days  
Heating Degree Days 27    
Moisture  
Dew Point 38 °F    
Average Humidity 100    
Maximum Humidity 100    
Minimum Humidity 96    
Precipitation  
Precipitation 0.00 in - - ()
Sea Level Pressure  
Sea Level Pressure 30.22 in    
Wind  
Wind Speed 3 mph (SSE)    
Max Wind Speed 5 mph    
Max Gust Speed -    
Averages and records for this station are not official NWS values.
T = Trace of Precipitation, MM = Missing Value Source: NWS Daily Summary

Daily Weather History Graph

Daily Weather History Graph

Search for Another Location

Airport or City:

Trip Planner

Search our weather history database for the weather conditions in past years. The results will help you decide how hot, cold, wet, or windy it might be!

Date:

Astronomy

May. 02, 2012 Rise Set
Actual Time 5:24 AM EDT 7:46 PM EDT
Civil Twilight 4:51 AM EDT 8:19 PM EDT
Nautical Twilight 4:10 AM EDT 9:01 PM EDT
Astronomical Twilight 3:24 AM EDT 9:47 PM EDT
Moon 3:45 PM EDT (5/2) 3:04 AM EDT (5/2)
Length of Visible Light 15h 28m
Length of Day
14h 22m
Waxing Gibbous, 83% of the Moon is Illuminated
May 2
Waxing Gibbous
May 5
Full
May 12
Last Quarter
May 20
New
May 28
First Quarter

Hourly Weather History & Observations

Time (EDT) Temp. Windchill Dew Point Humidity Pressure Visibility Wind Dir Wind Speed Gust Speed Precip Events Conditions
12:56 AM 35.1 °F 32.2 °F 35.1 °F 100% 30.19 in - Variable 3.5 mph - N/A   Unknown
1:56 AM 35.1 °F 32.2 °F 35.1 °F 100% 30.18 in - Variable 3.5 mph - N/A   Unknown
2:56 AM 35.1 °F - 35.1 °F 100% 30.19 in - Calm Calm - N/A   Unknown
3:56 AM 35.1 °F 32.2 °F 35.1 °F 100% 30.20 in - SSE 3.5 mph - N/A   Unknown
4:56 AM 35.1 °F - 35.1 °F 100% 30.20 in - Calm Calm - N/A   Unknown
5:56 AM 35.1 °F 32.2 °F 35.1 °F 100% 30.21 in - SSE 3.5 mph - N/A   Unknown
6:56 AM 36.0 °F 32.1 °F 36.0 °F 100% 30.21 in - Variable 4.6 mph - N/A   Unknown
7:56 AM 36.0 °F 32.1 °F 36.0 °F 100% 30.23 in - SE 4.6 mph - N/A   Unknown
8:56 AM 36.0 °F 33.3 °F 36.0 °F 100% 30.26 in - Variable 3.5 mph - N/A   Unknown
9:56 AM 37.0 °F 34.5 °F 37.0 °F 100% 30.25 in - Variable 3.5 mph - N/A   Unknown
10:56 AM 37.9 °F 35.5 °F 37.9 °F 100% 30.24 in - Variable 3.5 mph - N/A   Unknown
11:56 AM 39.0 °F 35.7 °F 39.0 °F 100% 30.24 in - SSE 4.6 mph - N/A   Unknown
12:56 PM 39.0 °F - 39.0 °F 100% 30.24 in - Calm Calm - N/A   Unknown
1:56 PM 39.9 °F 37.8 °F 39.9 °F 100% 30.24 in - Variable 3.5 mph - N/A   Unknown
2:56 PM 41.0 °F - 41.0 °F 100% 30.22 in - Calm Calm - N/A   Unknown
3:56 PM 41.0 °F 38.0 °F 39.9 °F 96% 30.23 in - Variable 4.6 mph - N/A   Unknown
4:56 PM 41.0 °F - 39.9 °F 96% 30.22 in - Calm Calm - N/A   Unknown
5:56 PM 39.9 °F 37.8 °F 39.9 °F 100% 30.22 in - SE 3.5 mph - N/A   Unknown
6:56 PM 39.9 °F - 39.9 °F 100% 30.22 in - Calm Calm - N/A   Unknown
7:56 PM 39.9 °F - 39.9 °F 100% 30.22 in - Calm Calm - N/A   Unknown
8:56 PM 39.9 °F 37.8 °F 39.9 °F 100% 30.23 in - Variable 3.5 mph - N/A   Unknown
9:56 PM 39.9 °F 37.8 °F 39.9 °F 100% 30.23 in - SSE 3.5 mph - N/A   Unknown
10:56 PM 39.9 °F 37.8 °F 39.9 °F 100% 30.22 in - SSE 3.5 mph - N/A   Unknown
11:56 PM 39.9 °F 37.8 °F 39.9 °F 100% 30.21 in - Variable 3.5 mph - N/A   Unknown